UAL1247 KDEN-KPDX

Flight info

Callsign UAL1247
Flight time 2h 7m
Altitude 34000
Route ZIMMR4 CHNGY BOI JOTBA HHOOD6
Aircraft A20N/M-SDE2E3FGHIRWXY/LB1

Departure

Time 2026-05-04 16:33
Airport Denver International Airport (KDEN)

Arrival

Time 2026-05-04 18:40
Airport Portland International Airport (KPDX)
Time Latitude Longitude Altitude Speed Heading
2026-05-04 15:52 39.85456 -104.67837 5382 ft 0 kts 180°
2026-05-04 16:21 39.85481 -104.67837 5383 ft 4 kts 180°
2026-05-04 16:22 39.85525 -104.67836 5380 ft 0 kts 180°
2026-05-04 16:26 39.85515 -104.67854 5379 ft 3 kts 261°
2026-05-04 16:27 39.85536 -104.67962 5381 ft 9 kts 276°
2026-05-04 16:28 39.85510 -104.68208 5380 ft 9 kts 220°
2026-05-04 16:28 39.85371 -104.68383 5380 ft 9 kts 210°
2026-05-04 16:29 39.85203 -104.68689 5366 ft 20 kts 269°
2026-05-04 16:30 39.85200 -104.69311 5345 ft 21 kts 272°
2026-05-04 16:31 39.85202 -104.69593 5338 ft 8 kts 270°
2026-05-04 16:31 39.85315 -104.69660 5336 ft 10 kts 359°
2026-05-04 16:32 39.87199 -104.69642 5334 ft 162 kts
2026-05-04 16:33 39.89722 -104.69479 5979 ft 185 kts 358°
2026-05-04 16:33 39.92012 -104.70870 6887 ft 187 kts 309°
2026-05-04 16:34 39.93008 -104.74149 7494 ft 219 kts 271°
2026-05-04 16:34 39.93006 -104.76271 7723 ft 246 kts 270°
2026-05-04 16:35 39.93090 -104.83616 9745 ft 281 kts 272°
2026-05-04 16:35 39.93194 -104.91158 12153 ft 292 kts 272°
2026-05-04 16:36 39.93250 -104.93850 12969 ft 296 kts 273°
2026-05-04 16:36 39.93393 -104.99249 14496 ft 302 kts 273°
2026-05-04 16:37 39.93532 -105.04763 16019 ft 308 kts 273°
2026-05-04 16:37 39.93599 -105.07564 16718 ft 311 kts 272°
2026-05-04 16:37 39.93724 -105.13010 18075 ft 317 kts 272°
2026-05-04 16:38 39.93831 -105.17814 19129 ft 321 kts 272°
2026-05-04 16:39 39.94276 -105.26617 20980 ft 327 kts 276°
2026-05-04 16:39 39.94749 -105.32572 22173 ft 332 kts 276°
2026-05-04 16:40 39.95219 -105.38572 23349 ft 337 kts 276°
2026-05-04 16:40 39.95709 -105.44829 23804 ft 361 kts 276°
2026-05-04 16:41 39.96237 -105.51580 24279 ft 380 kts 276°
2026-05-04 16:41 39.97031 -105.61872 25848 ft 384 kts 275°
2026-05-04 16:42 39.97725 -105.72453 26877 ft 401 kts 273°
2026-05-04 16:43 39.98057 -105.79725 27779 ft 405 kts 273°
2026-05-04 16:43 39.98411 -105.87093 28618 ft 409 kts 273°
2026-05-04 16:43 39.98593 -105.90801 29009 ft 411 kts 273°
2026-05-04 16:44 39.99321 -106.05764 30399 ft 417 kts 273°
2026-05-04 16:45 39.99681 -106.13324 31125 ft 418 kts 273°
2026-05-04 16:46 40.00208 -106.24589 32413 ft 411 kts 273°
2026-05-04 16:46 40.00548 -106.31990 33286 ft 406 kts 273°
2026-05-04 16:47 40.00878 -106.39255 33871 ft 402 kts 273°
2026-05-04 16:47 40.01774 -106.46410 33899 ft 402 kts 284°
2026-05-04 16:48 40.05415 -106.56596 33894 ft 424 kts 296°
2026-05-04 16:48 40.06849 -106.59966 33893 ft 425 kts 296°
2026-05-04 16:49 40.12600 -106.73499 33898 ft 426 kts 296°
2026-05-04 16:50 40.18318 -106.86975 33920 ft 427 kts 296°
2026-05-04 16:51 40.22644 -106.97207 33933 ft 428 kts 296°
2026-05-04 16:52 40.28405 -107.10909 33978 ft 430 kts 296°
2026-05-04 16:53 40.32706 -107.21183 34007 ft 431 kts 296°
2026-05-04 16:54 40.38468 -107.35001 34012 ft 432 kts 296°
2026-05-04 16:55 40.47076 -107.55759 34009 ft 433 kts 295°
2026-05-04 16:56 40.54248 -107.73169 33974 ft 434 kts 295°
2026-05-04 16:57 40.58538 -107.83632 33932 ft 434 kts 295°
2026-05-04 16:58 40.64267 -107.97661 33868 ft 435 kts 295°
2026-05-04 17:00 40.72842 -108.18778 33851 ft 436 kts 295°
2026-05-04 17:01 40.79951 -108.36403 33838 ft 436 kts 295°
2026-05-04 17:02 40.85640 -108.50581 33832 ft 437 kts 295°
2026-05-04 17:03 40.89883 -108.61198 33830 ft 437 kts 295°
2026-05-04 17:03 40.94142 -108.71893 33824 ft 438 kts 295°
2026-05-04 17:04 40.99801 -108.86166 33824 ft 437 kts 295°
2026-05-04 17:05 41.05430 -109.00434 33817 ft 438 kts 295°
2026-05-04 17:06 41.09659 -109.11195 33810 ft 438 kts 295°
2026-05-04 17:07 41.13390 -109.20725 33811 ft 438 kts 295°
2026-05-04 17:07 41.16650 -109.29078 33808 ft 438 kts 295°
2026-05-04 17:08 41.20842 -109.39851 33808 ft 438 kts 295°
2026-05-04 17:09 41.23636 -109.47054 33809 ft 438 kts 295°
2026-05-04 17:09 41.26420 -109.54248 33804 ft 438 kts 295°
2026-05-04 17:10 41.33363 -109.72270 33806 ft 439 kts 295°
2026-05-04 17:11 41.36149 -109.79532 33806 ft 439 kts 295°
2026-05-04 17:12 41.40310 -109.90412 33812 ft 440 kts 295°
2026-05-04 17:13 41.47230 -110.08598 33893 ft 441 kts 295°
2026-05-04 17:14 41.52770 -110.23239 33947 ft 442 kts 295°
2026-05-04 17:15 41.56901 -110.34207 33948 ft 443 kts 295°
2026-05-04 17:16 41.62429 -110.48948 33924 ft 444 kts 295°
2026-05-04 17:17 41.67932 -110.63696 33961 ft 444 kts 295°
2026-05-04 17:18 41.73434 -110.78520 33938 ft 445 kts 295°
2026-05-04 17:19 41.78914 -110.93358 33872 ft 445 kts 295°
2026-05-04 17:20 41.84386 -111.08256 33816 ft 445 kts 295°
2026-05-04 17:20 41.88476 -111.19440 33824 ft 445 kts 295°
2026-05-04 17:21 41.93918 -111.34393 33828 ft 446 kts 295°
2026-05-04 17:22 41.96634 -111.41884 33838 ft 447 kts 295°
2026-05-04 17:23 42.02073 -111.56944 33846 ft 447 kts 295°
2026-05-04 17:24 42.06123 -111.68213 33852 ft 448 kts 295°
2026-05-04 17:25 42.11540 -111.83366 33861 ft 457 kts 296°
2026-05-04 17:26 42.17094 -111.98994 33839 ft 463 kts 296°
2026-05-04 17:27 42.23567 -112.17295 33824 ft 464 kts 296°
2026-05-04 17:28 42.28984 -112.32706 33817 ft 463 kts 296°
2026-05-04 17:29 42.37241 -112.56354 33807 ft 464 kts 296°
2026-05-04 17:31 42.44098 -112.76151 33798 ft 464 kts 296°
2026-05-04 17:32 42.50911 -112.95957 33797 ft 464 kts 296°
2026-05-04 17:33 42.56350 -113.11874 33809 ft 464 kts 296°
2026-05-04 17:34 42.61737 -113.27734 33803 ft 464 kts 296°
2026-05-04 17:35 42.68457 -113.47644 33831 ft 464 kts 296°
2026-05-04 17:36 42.71123 -113.55586 33842 ft 464 kts 296°
2026-05-04 17:36 42.73795 -113.63566 33850 ft 463 kts 296°
2026-05-04 17:37 42.76460 -113.71553 33843 ft 464 kts 296°
2026-05-04 17:37 42.79125 -113.79562 33835 ft 464 kts 296°
2026-05-04 17:38 42.81765 -113.87518 33819 ft 463 kts 296°
2026-05-04 17:38 42.84421 -113.95545 33806 ft 463 kts 296°
2026-05-04 17:39 42.88387 -114.07581 33808 ft 463 kts 296°
2026-05-04 17:39 42.91016 -114.15584 33823 ft 463 kts 296°
2026-05-04 17:40 42.93626 -114.23558 33835 ft 463 kts 296°
2026-05-04 17:40 42.96258 -114.31620 33839 ft 463 kts 296°
2026-05-04 17:41 42.98877 -114.39667 33838 ft 463 kts 297°
2026-05-04 17:41 43.01480 -114.47690 33853 ft 463 kts 297°
2026-05-04 17:42 43.04074 -114.55707 33866 ft 463 kts 297°
2026-05-04 17:42 43.06670 -114.63756 33874 ft 463 kts 297°
2026-05-04 17:43 43.09260 -114.71807 33866 ft 462 kts 297°
2026-05-04 17:43 43.11847 -114.79878 33863 ft 463 kts 297°
2026-05-04 17:44 43.14430 -114.87960 33849 ft 463 kts 297°
2026-05-04 17:44 43.17001 -114.96031 33837 ft 463 kts 297°
2026-05-04 17:45 43.19575 -115.04133 33822 ft 463 kts 297°
2026-05-04 17:45 43.22123 -115.12179 33815 ft 463 kts 297°
2026-05-04 17:46 43.24686 -115.20298 33814 ft 463 kts 297°
2026-05-04 17:46 43.27243 -115.28420 33817 ft 463 kts 297°
2026-05-04 17:47 43.29795 -115.36553 33815 ft 464 kts 297°
2026-05-04 17:47 43.32347 -115.44715 33811 ft 464 kts 297°
2026-05-04 17:48 43.34879 -115.52833 33815 ft 465 kts 297°
2026-05-04 17:48 43.37421 -115.61007 33817 ft 465 kts 297°
2026-05-04 17:49 43.39961 -115.69205 33811 ft 465 kts 297°
2026-05-04 17:49 43.42499 -115.77414 33813 ft 466 kts 297°
2026-05-04 17:50 43.45014 -115.85564 33827 ft 466 kts 297°
2026-05-04 17:50 43.47538 -115.93763 33842 ft 466 kts 297°
2026-05-04 17:51 43.50069 -116.02011 33855 ft 467 kts 297°
2026-05-04 17:51 43.52578 -116.10210 33871 ft 468 kts 297°
2026-05-04 17:52 43.55102 -116.18488 33864 ft 468 kts 297°
2026-05-04 17:52 43.57983 -116.26477 33867 ft 464 kts 304°
2026-05-04 17:53 43.61222 -116.34183 33862 ft 465 kts 304°
2026-05-04 17:53 43.64382 -116.41921 33871 ft 465 kts 303°
2026-05-04 17:54 43.67523 -116.49768 33862 ft 466 kts 303°
2026-05-04 17:54 43.70645 -116.57620 33882 ft 467 kts 303°
2026-05-04 17:55 43.73773 -116.65510 33881 ft 468 kts 303°
2026-05-04 17:55 43.76879 -116.73363 33858 ft 468 kts 303°
2026-05-04 17:56 43.79995 -116.81263 33850 ft 469 kts 303°
2026-05-04 17:56 43.83110 -116.89184 33846 ft 469 kts 303°
2026-05-04 17:57 43.86232 -116.97144 33865 ft 470 kts 303°
2026-05-04 17:57 43.89352 -117.05123 33868 ft 470 kts 303°
2026-05-04 17:58 43.92446 -117.13054 33839 ft 470 kts 303°
2026-05-04 17:58 43.95554 -117.21047 33852 ft 471 kts 303°
2026-05-04 17:59 43.98664 -117.29068 33845 ft 471 kts 303°
2026-05-04 18:00 44.03302 -117.41069 33840 ft 471 kts 303°
2026-05-04 18:00 44.06386 -117.49079 33834 ft 470 kts 303°
2026-05-04 18:01 44.09458 -117.57079 33837 ft 470 kts 303°
2026-05-04 18:01 44.12536 -117.65120 33846 ft 470 kts 303°
2026-05-04 18:02 44.17122 -117.77142 33849 ft 470 kts 303°
2026-05-04 18:02 44.20180 -117.85187 33854 ft 470 kts 303°
2026-05-04 18:03 44.23241 -117.93266 33862 ft 470 kts 303°
2026-05-04 18:03 44.26293 -118.01341 33874 ft 470 kts 303°
2026-05-04 18:04 44.29317 -118.09363 33879 ft 470 kts 303°
2026-05-04 18:05 44.33866 -118.21482 33882 ft 471 kts 302°
2026-05-04 18:05 44.36907 -118.29610 33891 ft 471 kts 302°
2026-05-04 18:06 44.41426 -118.41735 33889 ft 471 kts 302°
2026-05-04 18:06 44.44452 -118.49881 33893 ft 471 kts 302°
2026-05-04 18:07 44.47465 -118.58019 33895 ft 471 kts 302°
2026-05-04 18:07 44.50478 -118.66181 33892 ft 471 kts 302°
2026-05-04 18:08 44.53472 -118.74317 33893 ft 471 kts 302°
2026-05-04 18:08 44.56475 -118.82500 33887 ft 471 kts 302°
2026-05-04 18:09 44.62461 -118.98885 33883 ft 472 kts 302°
2026-05-04 18:10 44.65449 -119.07100 33886 ft 472 kts 302°
2026-05-04 18:10 44.68418 -119.15289 33887 ft 472 kts 302°
2026-05-04 18:11 44.71394 -119.23520 33886 ft 473 kts 302°
2026-05-04 18:11 44.74367 -119.31768 33885 ft 473 kts 302°
2026-05-04 18:12 44.77343 -119.40051 33884 ft 473 kts 302°
2026-05-04 18:12 44.80311 -119.48332 33885 ft 474 kts 302°
2026-05-04 18:13 44.83261 -119.56593 33887 ft 474 kts 302°
2026-05-04 18:13 44.85985 -119.64258 33885 ft 458 kts 302°
2026-05-04 18:14 44.87376 -119.68180 33889 ft 452 kts 302°
2026-05-04 18:14 44.90225 -119.76198 33886 ft 458 kts 302°
2026-05-04 18:15 44.95421 -119.90908 33872 ft 457 kts 302°
2026-05-04 18:16 44.98260 -119.98982 33878 ft 457 kts 302°
2026-05-04 18:16 44.99678 -120.03025 33699 ft 458 kts 302°
2026-05-04 18:16 45.01088 -120.07052 33430 ft 457 kts 302°
2026-05-04 18:17 45.03889 -120.15066 32830 ft 457 kts 301°
2026-05-04 18:17 45.05305 -120.19120 32133 ft 459 kts 301°
2026-05-04 18:17 45.08155 -120.27294 30324 ft 467 kts 301°
2026-05-04 18:18 45.09580 -120.31397 29701 ft 462 kts 300°
2026-05-04 18:18 45.10986 -120.35458 29118 ft 455 kts 300°
2026-05-04 18:18 45.12370 -120.39458 28517 ft 448 kts 300°
2026-05-04 18:18 45.13732 -120.43395 27951 ft 442 kts 300°
2026-05-04 18:19 45.16390 -120.51085 26826 ft 432 kts 300°
2026-05-04 18:19 45.17728 -120.54871 26269 ft 427 kts 302°
2026-05-04 18:19 45.19145 -120.58555 25704 ft 422 kts 303°
2026-05-04 18:20 45.20574 -120.62172 25126 ft 419 kts 303°
2026-05-04 18:20 45.21989 -120.65764 24591 ft 415 kts 303°
2026-05-04 18:20 45.23381 -120.69330 24059 ft 412 kts 303°
2026-05-04 18:20 45.24757 -120.72883 23525 ft 409 kts 302°
2026-05-04 18:21 45.26122 -120.76427 22870 ft 407 kts 302°
2026-05-04 18:21 45.27469 -120.79936 22378 ft 401 kts 302°
2026-05-04 18:21 45.28796 -120.83398 21837 ft 397 kts 302°
2026-05-04 18:21 45.30092 -120.86784 21316 ft 393 kts 302°
2026-05-04 18:22 45.31394 -120.90186 20763 ft 390 kts 302°
2026-05-04 18:22 45.32683 -120.93562 20230 ft 387 kts 302°
2026-05-04 18:22 45.33962 -120.96912 19699 ft 384 kts 301°
2026-05-04 18:22 45.35233 -121.00249 19209 ft 381 kts 301°
2026-05-04 18:23 45.36482 -121.03531 18776 ft 376 kts 301°
2026-05-04 18:23 45.37722 -121.06795 18302 ft 373 kts 300°
2026-05-04 18:23 45.38770 -121.10141 17981 ft 370 kts 292°
2026-05-04 18:23 45.39580 -121.13632 17622 ft 371 kts 290°
2026-05-04 18:24 45.40388 -121.17104 17206 ft 368 kts 291°
2026-05-04 18:24 45.41193 -121.20533 16703 ft 365 kts 291°
2026-05-04 18:24 45.41986 -121.23909 16237 ft 362 kts 291°
2026-05-04 18:24 45.42777 -121.27295 15777 ft 358 kts 290°
2026-05-04 18:25 45.43559 -121.30652 15311 ft 355 kts 290°
2026-05-04 18:25 45.44328 -121.33965 15006 ft 345 kts 290°
2026-05-04 18:25 45.45069 -121.37170 14647 ft 339 kts 290°
2026-05-04 18:25 45.45805 -121.40348 14267 ft 335 kts 291°
2026-05-04 18:26 45.46531 -121.43487 13861 ft 332 kts 291°
2026-05-04 18:26 45.47250 -121.46604 13344 ft 332 kts 291°
2026-05-04 18:26 45.47969 -121.49723 12802 ft 332 kts 290°
2026-05-04 18:26 45.48680 -121.52813 12279 ft 331 kts 290°
2026-05-04 18:27 45.49397 -121.55931 11756 ft 330 kts 290°
2026-05-04 18:27 45.50109 -121.59032 11243 ft 329 kts 290°
2026-05-04 18:27 45.50821 -121.62140 10740 ft 328 kts 290°
2026-05-04 18:27 45.51524 -121.65211 10329 ft 322 kts 290°
2026-05-04 18:28 45.52195 -121.68165 10150 ft 303 kts 289°
2026-05-04 18:28 45.52790 -121.70957 9931 ft 288 kts 285°
2026-05-04 18:28 45.53075 -121.73764 9457 ft 286 kts 275°
2026-05-04 18:28 45.53163 -121.76590 9090 ft 283 kts 275°
2026-05-04 18:29 45.53269 -121.79374 8906 ft 280 kts 276°
2026-05-04 18:29 45.53384 -121.82172 8620 ft 284 kts 276°
2026-05-04 18:29 45.53499 -121.84941 8389 ft 275 kts 276°
2026-05-04 18:29 45.53608 -121.87579 8254 ft 262 kts 276°
2026-05-04 18:30 45.53820 -121.92649 7714 ft 254 kts 277°
2026-05-04 18:30 45.53924 -121.95156 7461 ft 249 kts 276°
2026-05-04 18:30 45.54014 -121.97539 7316 ft 232 kts 277°
2026-05-04 18:31 45.54101 -121.99815 6987 ft 229 kts 277°
2026-05-04 18:31 45.54192 -122.02069 6721 ft 226 kts 276°
2026-05-04 18:31 45.53993 -122.04335 6654 ft 237 kts 253°
2026-05-04 18:31 45.53152 -122.06379 6514 ft 242 kts 237°
2026-05-04 18:32 45.52178 -122.08277 6377 ft 240 kts 237°
2026-05-04 18:32 45.51207 -122.10193 6235 ft 239 kts 238°
2026-05-04 18:32 45.50226 -122.12149 6100 ft 239 kts 238°
2026-05-04 18:32 45.49278 -122.14044 5967 ft 237 kts 238°
2026-05-04 18:33 45.48323 -122.15963 5838 ft 238 kts 238°
2026-05-04 18:33 45.47482 -122.17966 5701 ft 233 kts 253°
2026-05-04 18:33 45.47210 -122.20211 5515 ft 228 kts 274°
2026-05-04 18:33 45.47229 -122.22453 5254 ft 226 kts 274°
2026-05-04 18:34 45.47228 -122.24685 4945 ft 225 kts 273°
2026-05-04 18:34 45.47218 -122.26916 4628 ft 224 kts 272°
2026-05-04 18:34 45.47245 -122.29117 4354 ft 218 kts 279°
2026-05-04 18:34 45.47601 -122.31187 4205 ft 220 kts 292°
2026-05-04 18:35 45.48225 -122.33155 3945 ft 211 kts 298°
2026-05-04 18:35 45.48892 -122.34904 3684 ft 196 kts 300°
2026-05-04 18:35 45.49547 -122.36579 3500 ft 188 kts 298°
2026-05-04 18:35 45.50157 -122.38146 3246 ft 173 kts 298°
2026-05-04 18:36 45.50715 -122.39570 3006 ft 157 kts 296°
2026-05-04 18:36 45.51217 -122.40863 2819 ft 140 kts 297°
2026-05-04 18:36 45.51677 -122.42043 2638 ft 137 kts 296°
2026-05-04 18:36 45.52137 -122.43220 2449 ft 135 kts 296°
2026-05-04 18:37 45.52595 -122.44398 2271 ft 136 kts 295°
2026-05-04 18:37 45.53049 -122.45561 2094 ft 133 kts 296°
2026-05-04 18:37 45.53499 -122.46715 1917 ft 135 kts 296°
2026-05-04 18:37 45.53962 -122.47902 1730 ft 134 kts 296°
2026-05-04 18:38 45.54408 -122.49047 1550 ft 135 kts 296°
2026-05-04 18:38 45.54870 -122.50230 1354 ft 134 kts 296°
2026-05-04 18:38 45.55323 -122.51395 1166 ft 135 kts 296°
2026-05-04 18:38 45.55778 -122.52563 981 ft 137 kts 297°
2026-05-04 18:39 45.56239 -122.53745 791 ft 135 kts 295°
2026-05-04 18:39 45.56698 -122.54923 609 ft 137 kts 296°
2026-05-04 18:39 45.57166 -122.56128 423 ft 140 kts 296°
2026-05-04 18:39 45.57639 -122.57343 242 ft 140 kts 296°
2026-05-04 18:40 45.58102 -122.58531 56 ft 138 kts 296°
2026-05-04 18:40 45.58518 -122.59616 37 ft 99 kts 300°
2026-05-04 18:40 45.58702 -122.60048 35 ft 31 kts 306°
2026-05-04 18:40 45.58814 -122.60191 34 ft 17 kts 331°
2026-05-04 18:41 45.58884 -122.60236 30 ft 7 kts 350°
2026-05-04 18:41 45.58943 -122.60216 32 ft 11 kts 20°
2026-05-04 18:41 45.59026 -122.60152 30 ft 16 kts 31°
2026-05-04 18:41 45.59116 -122.60066 31 ft 16 kts 47°
2026-05-04 18:42 45.59143 -122.59932 30 ft 12 kts 75°
2026-05-04 18:42 45.59214 -122.59843 30 ft 15 kts 30°
2026-05-04 18:42 45.59307 -122.59755 31 ft 17 kts 49°
2026-05-04 18:42 45.59301 -122.59636 33 ft 0 kts 117°
2026-05-04 18:43 45.59289 -122.59608 34 ft 7 kts 120°
2026-05-04 18:43 45.59256 -122.59525 32 ft 11 kts 119°
2026-05-04 18:43 45.59215 -122.59415 35 ft 14 kts 118°
2026-05-04 18:43 45.59198 -122.59372 36 ft 0 kts 117°
2026-05-04 18:44 45.59198 -122.59371 36 ft 1 kts 117°
2026-05-04 18:44 45.59184 -122.59339 37 ft 6 kts 123°
2026-05-04 18:45 45.59162 -122.59283 38 ft 7 kts 116°
2026-05-04 18:45 45.59133 -122.59220 39 ft 9 kts 130°
2026-05-04 18:45 45.59103 -122.59130 39 ft 12 kts 115°
2026-05-04 18:45 45.59073 -122.59069 39 ft 7 kts 154°
2026-05-04 18:46 45.59041 -122.59084 38 ft 6 kts 206°
2026-05-04 18:46 45.59024 -122.59095 37 ft 3 kts 202°
2026-05-04 18:46 45.59013 -122.59103 36 ft 0 kts 207°
2026-05-04 18:46 45.59009 -122.59106 36 ft 0 kts 209°